Apalachia Observed Data For Previous 48 Hours

Caption
Day and Hour Reservoir Elevation (behind dam)* Tailwater Elevation (below dam)* Average Hourly Discharge*
6/21/2017 2 AM EDT 1,277.41 840.59 2,738
6/21/2017 3 AM EDT 1,277.25 840.59 2,863
6/21/2017 4 AM EDT 1,276.83 840.59 2,887
6/21/2017 5 AM EDT 1,276.32 840.60 2,877
6/21/2017 6 AM EDT 1,276.02 840.60 2,878
6/21/2017 7 AM EDT 1,276.01 840.59 2,869
6/21/2017 8 AM EDT 1,276.08 840.60 2,869
6/21/2017 9 AM EDT 1,276.23 840.61 2,866
6/21/2017 10 AM EDT 1,276.18 840.60 2,876
6/21/2017 11 AM EDT 1,276.31 840.59 2,869
6/21/2017 12 PM EDT 1,276.40 840.60 2,879
6/21/2017 1 PM EDT 1,276.53 840.60 2,874
6/21/2017 2 PM EDT 1,276.65 840.60 2,866
6/21/2017 3 PM EDT 1,276.79 840.60 2,885
6/21/2017 4 PM EDT 1,276.89 840.60 2,874
6/21/2017 5 PM EDT 1,277.01 840.60 2,873
6/21/2017 6 PM EDT 1,277.14 840.61 2,867
6/21/2017 7 PM EDT 1,277.27 840.60 2,878
6/21/2017 8 PM EDT 1,277.39 840.60 2,873
6/21/2017 9 PM EDT 1,277.51 840.60 2,879
6/21/2017 10 PM EDT 1,277.64 840.60 2,871
6/21/2017 11 PM EDT 1,277.76 840.60 2,871
6/22/2017 12 AM EDT 1,277.89 840.61 2,869
6/22/2017 1 AM EDT 1,277.74 840.61 2,873
6/22/2017 2 AM EDT 1,277.54 840.60 2,870
6/22/2017 3 AM EDT 1,277.24 840.59 2,881
6/22/2017 4 AM EDT 1,277.04 840.60 2,875
6/22/2017 5 AM EDT 1,276.90 840.60 2,874
6/22/2017 6 AM EDT 1,276.71 840.60 2,878
6/22/2017 7 AM EDT 1,276.39 840.61 2,872
6/22/2017 8 AM EDT 1,276.21 840.58 2,875
6/22/2017 9 AM EDT 1,276.02 840.60 2,865
6/22/2017 10 AM EDT 1,276.06 840.60 2,874
6/22/2017 11 AM EDT 1,276.13 840.60 2,869
6/22/2017 12 PM EDT 1,276.39 840.59 2,872
6/22/2017 1 PM EDT 1,276.51 840.61 2,868
6/22/2017 2 PM EDT 1,276.59 840.61 2,880
6/22/2017 3 PM EDT 1,276.72 840.60 2,875
6/22/2017 4 PM EDT 1,276.87 840.61 2,879
6/22/2017 5 PM EDT 1,276.99 840.61 2,869
6/22/2017 6 PM EDT 1,277.09 840.61 2,873
6/22/2017 7 PM EDT 1,277.22 840.61 2,868
6/22/2017 8 PM EDT 1,277.35 840.60 2,874
6/22/2017 9 PM EDT 1,277.48 840.61 2,873
6/22/2017 10 PM EDT 1,277.60 840.60 2,869
6/22/2017 11 PM EDT 1,277.72 840.61 2,869
6/23/2017 12 AM EDT 1,277.64 839.70 2,594
6/23/2017 1 AM EDT 1,277.53 839.58 1,470

Elevations are in feet above sea level. Discharges are in cubic feet per second and are reported at the end of the hour.